This is the latest recevied weather packets stored in our database for station/object OE-11344. If no packets are shown the sender has not sent any weather packets the latest 10 day(s).
| Time | Temp. | Humidity | Pressure | Rain* | Wind** | Luminosity | Snow |
|---|---|---|---|---|---|---|---|
| 1788019512 | 13.33° C | 74% | 852.7 hPa | 0 mm | - | 97 W/m² | - |
| 1788018911 | 13.89° C | 70% | 852.6 hPa | 0 mm | - | 91 W/m² | - |
| 1788018085 | 13.89° C | 78% | 852.5 hPa | 0 mm | - | 115 W/m² | - |
| 1788017712 | 13.89° C | 73% | 852.4 hPa | 0 mm | - | 103 W/m² | - |
| 1788017112 | 14.44° C | 66% | 852.3 hPa | 0 mm | - | 133 W/m² | - |
| 1788016285 | 14.44° C | 70% | 852.6 hPa | 0 mm | - | 175 W/m² | - |
| 1788015912 | 14.44° C | 70% | 852.9 hPa | 0 mm | - | 151 W/m² | - |
| 1788015312 | 14.44° C | 68% | 853 hPa | 0 mm | - | 169 W/m² | - |
| 1788014485 | 13.89° C | 66% | 853.1 hPa | 0 mm | - | 133 W/m² | - |
| 1788014112 | 13.89° C | 70% | 853.1 hPa | 0 mm | - | 133 W/m² | - |
| 1788013511 | 13.89° C | 71% | 853.1 hPa | 0 mm | - | 121 W/m² | - |
| 1788012685 | 13.89° C | 68% | 853.1 hPa | 0 mm | - | 139 W/m² | - |
| 1788012312 | 13.89° C | 70% | 853.1 hPa | 0 mm | - | 163 W/m² | - |
| 1788011712 | 13.89° C | 72% | 853.1 hPa | 0 mm | - | 169 W/m² | - |
| 1788010885 | 13.89° C | 64% | 853.2 hPa | 0 mm | - | 157 W/m² | - |
| 1788010512 | 14.44° C | 64% | 853.2 hPa | 0 mm | - | 175 W/m² | - |
| 1788009911 | 13.89° C | 67% | 853.2 hPa | 0 mm | - | 187 W/m² | - |
| 1788009084 | 13.89° C | 68% | 853.2 hPa | 0 mm | - | 175 W/m² | - |
| 1788008712 | 13.89° C | 65% | 853.3 hPa | 0 mm | - | 193 W/m² | - |
| 1788008112 | 13.89° C | 68% | 853.3 hPa | 0 mm | - | 193 W/m² | - |
| 1788007285 | 13.89° C | 72% | 853.4 hPa | 0 mm | - | 217 W/m² | - |
| 1788006912 | 13.89° C | 68% | 853.4 hPa | 0 mm | - | 229 W/m² | - |
| 1788006312 | 13.89° C | 66% | 853.4 hPa | 0 mm | - | 332 W/m² | - |
| 1788005484 | 13.89° C | 67% | 853.4 hPa | 0 mm | - | 266 W/m² | - |
| 1788005112 | 13.89° C | 66% | 853.4 hPa | 0 mm | - | 405 W/m² | - |
* Rain latest hour (hover to see other rain measurements)
** Current wind speed in m/s (hover to see current wind gust speed)